Regional Weather Roundup
Issued by NWS

Home | Current Version | Previous Version | Text Only | Print | Product List | Glossary Off
Versions: 1 2 3 4 5 6 7 8 9 10 11 12 13 14 15 16 17 18 19 20 21 22 23 24 25 26 27 28 29 30 31 32 33 34 35 36 37 38 39 40 41 42 43 44 45 46 47 48 49 50

303
ASUS43 KBIS 261402
RWRND

NORTH DAKOTA REGIONAL WEATHER ROUNDUP
NATIONAL WEATHER SERVICE BISMARCK ND
900 AM CDT TUE JUL 26 2016

NOTE: "FAIR" INDICATES FEW OR NO CLOUDS BELOW 12,000 FEET WITH NO
SIGNIFICANT WEATHER AND/OR OBSTRUCTIONS TO VISIBILITY.


NDZ001>003-009>011-017-261500-
NORTHWEST NORTH DAKOTA

CITY           SKY/WX    TMP DP  RH WIND       PRES   REMARKS
WILLISTON      CLOUDY    67  60  78 NE7       30.07S
MINOT          SUNNY     73  64  73 W5        30.04R
MINOT AFB      SUNNY     68  63  83 N7        30.04R
$$

NDZ018>021-031>035-040>046-261500-
SOUTHWEST NORTH DAKOTA

CITY           SKY/WX    TMP DP  RH WIND       PRES   REMARKS
BISMARCK       MOSUNNY   73  67  81 NE10      29.97S
DICKINSON      CLOUDY    66  63  90 NW8       30.09R
GARRISON         N/A     73  69  87 E7        30.02R
HETTINGER ARPT CLOUDY    69  63  81 NW26G36   30.08R
$$

NDZ004>008-012>016-024-026-027-054-261500-
NORTHEAST NORTH DAKOTA

CITY           SKY/WX    TMP DP  RH WIND       PRES   REMARKS
GRAND FORKS    PTSUNNY   75  65  70 CALM      29.96R
GRND FRKS AFB  PTSUNNY   74  65  73 NE1       29.98R
DEVILS LAKE    SUNNY     74  67  78 N3        30.01S
$$

NDZ022-023-025-028>030-036>039-047>053-261500-
SOUTHEAST NORTH DAKOTA

CITY           SKY/WX    TMP DP  RH WIND       PRES   REMARKS
FARGO          LGT RAIN  71  66  84 S9        29.94S
JAMESTOWN      CLOUDY    71  67  87 CALM      29.99R
$$





USA.gov is the U.S. government's official web portal to all federal, state and local government web resources and services.